Find Starlink 30584

NORAD ID: 58089 Int'l Des: 2023-160 Owner: SPXS Country: US Constellation: starlink operational
LEOCIRCULAR

Live Position

Loading 3D Globe...

About Starlink 30584

Description loading...

Upcoming Passes

Passes for default location (London). Set your location on the main map for personalized predictions.

Altitude History

Loading altitude history...

Two-Line Element Set

1 58089U 23160Q 26106.65602429 .00000155 00000-0 15175-4 0 9995
2 58089 43.0038 223.3472 0001633 280.8951 79.1717 15.27578127138750
Epoch: Apr 16, 2026 • Age: 19 hours

Current Status

Altitude 485.5 km
Velocity 7.62 km/s
Sub-Earth Point -15.70°S, 161.19°W
Launch Date Oct 18, 2023
Age 2.4 years
Type internet

Technical Details

Classification Payload
Mass 730.00 kg
Dry Mass 700.00 kg
Total Mass 730.00 kg
Length 0.30 m
Diameter 4.10 m
Span 29.00 m
Shape Box + pan
Manufacturer SPXS
Bus Type Starlink V2M
Phase Status In Orbit
Owner/State SPXS/US

Most Searched